Location: Theydon Bois
(51.6750°N, 0.1050°E)
Time: 23:04:24
(UTC+01:00)

N. Korean satellite - Visible Passes

Search period start: 19 October 2017 00:00
Search period end: 29 October 2017 00:00
Orbit: 459 x 517 km, 97.2° (Epoch: 18 October)

Date Brightness Start Highest point End Pass type
(mag) Time Alt. Az. Time Alt. Az. Time Alt. Az.
19 Oct 8.0 19:20:58 10° S 19:24:18 40° W 19:27:37 10° NNW visible
20 Oct 10.3 06:44:23 10° ENE 06:45:35 11° E 06:46:47 10° ESE visible
20 Oct 6.7 18:57:24 10° S 19:00:54 76° WSW 19:04:24 10° NNW visible
21 Oct 6.5 18:34:08 10° SSE 18:37:35 57° ENE 18:41:00 10° N visible
21 Oct 9.9 20:09:46 10° WSW 20:11:28 13° W 20:13:10 10° WNW visible
22 Oct 9.2 19:45:07 10° SSW 19:47:55 22° W 19:50:42 10° NW visible
23 Oct 8.0 19:21:09 10° S 19:24:27 39° W 19:27:44 10° NNW visible
24 Oct 10.2 06:44:25 10° ENE 06:45:44 12° E 06:47:03 10° ESE visible
24 Oct 6.7 18:57:34 10° S 19:01:01 75° WSW 19:04:30 10° NNW visible
25 Oct 6.5 18:34:17 10° SSE 18:37:41 57° ENE 18:41:07 10° N visible
25 Oct 9.9 20:09:58 10° WSW 20:11:35 13° W 20:13:13 10° WNW visible
26 Oct 9.2 19:45:16 10° SW 19:48:02 22° W 19:50:47 10° NW visible
27 Oct 9.7 07:06:41 10° NE 07:09:24 20° E 07:12:08 10° SE visible
27 Oct 8.0 19:21:16 10° SSW 19:24:32 39° W 19:27:48 10° NNW visible
28 Oct 10.2 06:44:24 10° ENE 06:45:50 12° E 06:47:16 10° ESE visible
28 Oct 6.7 18:57:40 10° S 19:01:06 74° WSW 19:04:34 10° NNW visible
